Weather in Koytash

Uzbekistan     40°12′47″N   67°20′15″E
В апреле 2022 года жителям России запретили посещать сайт meteo.paraplan.net по решению Генеральной прокуратуры. Аудитория сайта уменьшилась в 10 раз. Владельцы сайта не видят смысла в поддержке погодного сервера в таких условиях. Сайт будет закрыт в октябре.
temp.,
°C
wind,
m/s
gust,
m/s
humid.,
%
clouds,
%
prec.,
mm/h
press.,
hPa
HPBL,
m
3 october, mon
mon323:00+10ne22273 0.0 101613
02:00+11s112798 0.0 101410
05:00+12wsw333582 0.1 101543
08:00+12w342934 0.3 1016174
11:00+17wsw462312 0.3 1016880
14:00+19wsw682114 0.0 10151571
17:00+19w55213 0.0 10161513
20:00+13ne22280 0.0 101811
4 october, tue
tue423:00+11ese22300 0.0 101911
02:00+11ese22310 0.0 101910
05:00+10se11330 0.0 101910
08:00+15ene11260 0.0 102042
11:00+19wsw14210 0.0 10191369
14:00+22wnw24150 0.0 10191991
17:00+20nne33170 0.0 1020653
20:00+14nne33250 0.0 102226
5 october, wed
wed523:00+12ne33270 0.0 102224
02:00+11ne22290 0.0 102214
05:00+9nne22310 0.0 102214
08:00+12nne23250 0.0 1023103
11:00+17nne33180 0.0 1022685
14:00+18nne43160 0.0 10211011
17:00+16nne34170 0.0 1021696
20:00+12nne33230 0.0 102228
6 october, thu
thu623:00+10n33230 0.0 102125
02:00+9n33340 0.0 102120
05:00+7n22390 0.0 102114
08:00+11n22310 0.0 102176
11:00+17ne33170 0.0 1019628
14:00+20ne32160 0.0 10181097
17:00+18ne33180 0.0 1019609
20:00+13ne22240 0.0 102011
7 october, fri
fri723:00+12ne12250 0.0 102011
02:00+12nne11240 0.0 101911
05:00+11ne22240 0.0 101910
08:00+16ene22190 0.0 102041
11:00+21nne22120 0.0 10191003
14:00+23nne33120 0.0 10191588
17:00+21ne33150 0.0 1019820
20:00+16ne22208 0.0 102113